Wind_Speed
19 20 21 21 20 18 17 17 16 14 14 13 14 14 12 11 9 12 11 5 11 11 10 8 15 14 12 4 5 4 3 4 6 4 3 5 3 15 2 20 6 8 18 32 31
19 20 21 22 22 19 17 16 16 15 14 13 12 13 13 12 11 10 7 9 12 11 9 9 18 14 5 4 3 2 2 4 5 6 3 10 4 12 4 17 2 9 22 31 30
20 21 22 23 23 20 18 15 14 14 15 13 11 12 11 10 8 1 4 14 14 9 7 6 9 13 5 5 7 4 5 7 10 14 12 6 10 13 12 9 10 33 36 37 32
21 22 23 24 24 22 19 15 14 14 13 12 10 9 10 6 2 6 7 12 11 9 10 12 13 6 4 5 8 3 7 10 9 15 17 8 7 9 22 7 22 35 37 39 37
21 21 21 23 23 23 20 16 14 15 11 11 10 8 7 3 5 2 6 6 7 8 12 15 16 7 3 4 5 8 6 14 13 20 19 12 10 12 23 6 24 31 32 37 35
23 23 23 23 23 21 19 16 15 12 11 9 9 6 5 4 6 9 8 4 4 6 10 17 12 9 7 6 4 5 11 14 13 20 15 11 10 17 19 20 29 32 31 33 33
25 24 24 23 22 21 17 15 14 12 11 8 8 7 8 6 8 8 8 5 3 4 7 17 11 4 5 6 4 7 5 4 6 14 8 23 6 17 25 34 33 30 31 31 31
26 26 25 23 21 18 14 14 15 9 6 5 4 7 6 8 9 12 8 6 5 7 6 7 8 9 4 7 7 4 3 3 1 10 8 19 12 3 31 33 30 30 31 34 30
26 26 25 22 19 15 12 14 9 5 4 3 2 4 4 6 10 10 13 7 8 7 9 6 7 7 2 4 5 5 2 3 1 4 9 4 2 13 27 29 28 28 30 33 34
26 26 24 20 15 10 11 7 5 2 5 3 3 3 1 1 1 4 8 9 7 6 5 6 5 2 3 4 5 2 2 4 3 5 11 5 6 17 26 26 28 28 30 31 33
27 26 22 18 12 7 8 4 6 2 15 7 6 6 10 7 3 3 6 9 9 2 2 3 3 5 7 5 4 2 2 3 4 4 2 7 8 19 25 21 22 25 27 30 32
27 25 23 17 8 5 7 7 8 9 9 15 14 17 16 11 4 3 6 7 4 2 2 5 5 7 3 4 4 4 3 5 6 7 6 7 9 17 22 23 27 28 27 31 31
28 25 24 16 7 3 5 7 7 6 2 8 6 8 7 5 5 6 9 8 4 3 1 5 6 2 2 5 4 2 3 2 5 7 7 9 5 5 9 16 20 24 34 31 34
28 25 26 16 3 3 2 7 7 5 4 4 3 4 7 5 3 9 12 9 1 8 7 3 6 4 4 6 4 6 7 7 6 1 3 1 3 3 5 13 10 24 26 32 30
27 26 23 15 7 2 5 8 5 3 4 3 4 2 6 5 1 3 14 12 6 5 7 7 2 5 7 8 5 8 4 7 4 6 3 3 5 5 7 11 16 25 31 36 37
25 26 23 12 6 4 7 6 3 4 2 1 3 2 4 2 2 3 6 8 4 4 2 6 3 6 7 7 9 5 1 4 4 3 2 7 7 4 9 19 21 24 36 41 37
25 22 18 9 2 5 8 4 4 4 4 6 2 1 3 2 2 4 4 4 5 3 2 4 4 4 6 3 1 4 6 2 2 1 5 4 3 9 23 19 20 23 34 39 40
25 19 8 3 4 3 5 4 2 2 3 2 3 4 5 6 3 4 5 2 3 4 3 3 5 2 1 6 7 6 9 6 5 4 5 4 5 9 11 25 30 32 30 34 39
23 12 1 3 3 2 2 4 4 2 3 4 2 6 7 5 1 2 5 5 4 3 7 4 5 5 4 2 5 3 3 6 7 3 2 3 7 7 6 8 18 24 28 36 37
23 10 5 3 3 3 4 2 3 3 2 5 4 3 7 7 6 5 5 4 6 5 2 3 1 2 6 3 3 3 3 3 3 5 3 4 4 6 4 8 7 9 27 36 39
15 3 5 5 4 2 3 4 4 6 3 5 2 4 3 4 4 4 4 2 4 5 10 1 2 5 1 3 2 6 4 4 5 4 6 1 6 6 9 10 10 13 26 33 33
5 2 3 6 3 2 0 3 2 6 10 6 5 4 3 5 6 3 3 3 15 3 3 2 4 2 4 3 3 2 3 2 4 3 1 4 5 5 5 8 10 17 20 22 27
12 2 7 7 1 3 4 3 8 4 6 4 5 4 5 4 3 5 5 11 22 9 3 1 3 4 9 6 6 5 4 2 2 2 6 5 5 3 8 11 17 10 12 13 18
6 3 4 5 2 4 1 2 4 9 8 11 4 5 5 6 7 4 8 5 8 16 5 3 3 5 5 5 1 4 7 3 3 3 3 6 5 5 4 7 12 10 15 16 14
4 2 2 1 2 2 2 1 4 3 5 10 6 6 3 4 4 5 4 6 5 17 7 4 3 2 3 6 4 5 6 7 1 3 5 7 7 6 5 6 6 12 16 15 13
4 3 4 3 7 1 3 4 5 3 3 3 7 4 7 5 3 1 3 3 1 8 7 7 1 2 3 5 8 5 7 1 6 6 5 4 4 4 10 22 19 18 20 21 17
2 3 2 2 4 2 2 4 3 5 8 10 12 4 5 2 2 6 6 6 4 1 3 3 3 3 4 5 7 1 5 3 7 7 5 2 4 4 13 18 19 19 22 21 19
Wind_Direction
359 357 355 353 349 344 339 337 335 329 325 317 313 312 314 310 299 284 275 232 195 179 153 172 166 163 182 233 231 178 80 149 182 194 200 162 91 165 170 144 164 164 162 162 169
355 354 353 352 349 344 339 334 333 328 323 320 314 310 314 316 308 274 233 191 172 185 169 173 182 179 199 206 214 179 124 186 183 154 140 175 177 191 125 163 152 137 148 163 175
351 350 350 349 347 344 339 333 332 328 322 319 318 311 312 323 324 60 185 190 190 188 190 176 175 184 244 211 203 187 202 162 179 158 146 180 229 216 154 203 204 155 157 169 177
348 347 344 344 344 342 339 333 329 327 320 315 320 313 307 322 161 99 109 159 172 191 211 203 184 187 238 218 208 259 212 166 194 175 174 179 174 177 177 253 197 168 166 171 177
345 344 342 339 340 339 336 331 326 324 320 312 316 313 303 275 241 151 139 138 181 217 222 200 178 204 252 244 192 225 236 202 214 192 204 173 184 181 201 276 172 164 168 176 180
343 342 341 338 337 338 334 328 324 323 316 310 304 305 281 272 160 157 160 191 222 241 213 191 197 199 284 277 197 287 267 255 245 200 208 177 175 176 197 179 162 164 171 182 189
341 340 339 337 336 336 336 327 324 320 310 302 293 291 263 230 162 173 174 189 279 283 213 193 177 260 308 313 304 279 298 286 167 209 228 194 195 218 173 170 162 175 175 183 192
341 339 338 336 333 337 341 333 319 312 317 296 287 288 255 151 184 186 191 187 238 258 253 197 213 274 220 281 330 356 19 358 29 128 152 153 206 139 163 159 168 178 184 189 193
342 338 336 336 333 339 347 338 337 330 343 312 273 294 257 196 203 214 211 235 233 264 258 231 268 233 248 91 1 5 236 231 30 181 158 94 162 173 171 167 170 180 188 195 199
341 338 337 336 334 344 355 346 1 47 20 10 240 330 332 16 202 225 224 225 238 286 257 234 193 95 43 91 212 230 347 327 38 337 184 173 191 169 180 172 179 183 191 201 205
341 339 339 336 332 356 22 30 358 314 319 251 274 271 274 345 163 152 170 203 242 308 150 9 97 206 227 183 189 287 210 303 256 248 262 220 172 174 178 184 185 190 196 205 209
341 339 338 339 314 345 39 49 24 320 301 293 268 264 264 282 305 194 175 151 143 227 39 14 234 224 246 229 180 260 319 318 284 332 175 188 195 178 178 188 191 191 201 206 215
340 338 337 340 297 309 105 37 349 328 321 293 240 247 263 211 214 251 194 176 128 143 113 161 246 244 188 288 315 253 171 264 252 332 356 106 32 139 202 198 205 209 205 209 216
339 338 337 340 294 186 79 339 337 320 60 281 235 224 212 226 253 215 192 176 88 182 158 229 277 219 253 254 153 285 169 237 269 129 205 71 213 262 165 210 208 217 212 216 219
339 335 334 324 280 228 301 308 295 291 72 174 184 196 184 174 247 204 192 198 173 172 101 246 230 209 224 232 151 245 211 250 251 209 152 221 94 238 147 209 214 213 213 217 219
338 335 329 323 263 229 306 312 275 41 81 2 141 169 131 228 320 108 153 194 204 142 11 229 242 168 212 239 181 234 310 37 53 92 126 228 149 248 193 205 213 212 211 217 214
338 332 323 310 267 240 305 304 38 101 320 335 322 63 64 309 303 159 160 175 164 132 321 311 267 263 212 257 53 114 76 307 317 46 211 226 132 224 211 210 203 206 212 213 210
340 334 325 321 227 242 302 57 75 2 327 335 340 60 75 359 311 326 152 229 51 75 112 154 310 229 35 200 187 181 157 169 201 175 233 90 209 242 205 213 215 219 211 209 208
341 341 144 127 157 331 326 71 199 207 253 330 44 71 347 350 84 42 39 12 356 182 160 149 272 303 249 247 144 195 158 205 108 358 49 234 283 294 229 215 225 216 200 205 206
340 349 155 174 236 330 72 223 257 250 354 59 84 36 31 337 34 34 21 319 320 18 193 212 283 288 290 24 6 176 182 95 2 141 204 285 284 239 306 289 255 214 197 204 202
339 36 145 207 231 0 115 224 281 4 88 62 73 57 88 358 2 34 351 275 325 336 68 55 104 284 326 73 243 344 353 36 111 121 157 188 263 224 273 264 222 209 202 200 198
351 48 88 170 23 41 183 205 35 347 52 59 83 75 72 28 22 57 67 350 349 323 59 342 136 283 231 274 313 185 21 99 123 219 101 141 274 293 307 306 243 211 200 199 197
331 321 59 171 115 328 307 50 52 40 24 56 44 22 40 40 94 33 358 353 13 22 45 7 22 12 350 357 8 44 350 312 166 91 189 133 265 297 342 353 349 159 156 189 201
336 6 53 115 81 135 18 40 109 38 52 70 39 61 59 36 16 35 355 352 348 15 27 56 97 144 182 224 218 313 315 310 100 105 183 209 249 291 13 6 358 30 117 141 159
343 345 27 325 356 16 106 45 95 76 69 42 28 29 98 60 30 16 343 329 351 8 21 67 76 355 266 270 254 246 277 317 318 236 173 236 205 266 132 83 30 75 91 73 84
336 0 355 352 314 348 17 357 119 92 75 50 105 56 74 99 151 282 3 34 323 336 23 357 29 13 297 304 286 288 329 334 58 336 265 280 228 127 107 92 54 44 56 58 48
282 297 287 338 349 81 196 166 141 108 38 121 153 109 77 122 238 281 255 255 253 12 355 39 35 35 281 329 323 339 320 85 89 20 298 208 341 78 73 65 43 27 34 34 32
Height
1522 1519 1516 1513 1510 1508 1506 1503 1500 1498 1497 1495 1492 1491 1491 1490 1489 1488 1487 1489 1489 1491 1494 1494 1496 1498 1500 1501 1501 1499 1504 1515 1511 1508 1504 1503 1505 1509 1505 1505 1508 1509 1510 1517 1522
1522 1519 1515 1512 1508 1505 1503 1501 1499 1497 1494 1493 1491 1490 1489 1488 1485 1484 1486 1487 1488 1489 1492 1494 1496 1498 1499 1500 1499 1498 1503 1500 1497 1499 1500 1500 1504 1507 1508 1509 1509 1509 1512 1519 1522
1521 1518 1514 1510 1506 1503 1501 1499 1497 1495 1492 1491 1490 1488 1487 1486 1484 1482 1481 1484 1487 1490 1492 1494 1496 1498 1499 1498 1497 1495 1498 1493 1496 1495 1497 1499 1502 1505 1508 1512 1508 1505 1508 1516 1523
1520 1516 1513 1509 1505 1501 1498 1496 1494 1492 1490 1489 1488 1487 1485 1486 1488 1482 1482 1484 1486 1488 1491 1493 1497 1499 1497 1495 1492 1495 1490 1493 1493 1493 1493 1496 1500 1501 1505 1506 1505 1508 1509 1514 1521
1519 1515 1511 1507 1504 1500 1496 1494 1492 1489 1488 1487 1486 1485 1485 1484 1482 1482 1483 1484 1486 1487 1489 1491 1494 1496 1495 1492 1491 1491 1489 1490 1490 1491 1492 1495 1497 1500 1503 1505 1508 1512 1516 1519 1522
1517 1514 1510 1506 1502 1498 1495 1492 1490 1488 1486 1485 1484 1484 1484 1484 1480 1481 1482 1483 1485 1486 1487 1489 1492 1496 1494 1491 1490 1485 1484 1485 1486 1488 1492 1494 1495 1498 1500 1507 1509 1513 1516 1520 1523
1515 1511 1507 1503 1499 1496 1493 1490 1488 1486 1484 1483 1483 1482 1482 1480 1480 1481 1482 1483 1484 1485 1486 1489 1491 1494 1494 1490 1488 1485 1487 1482 1483 1483 1487 1492 1498 1495 1496 1500 1506 1513 1517 1520 1523
1513 1509 1504 1500 1496 1493 1491 1488 1485 1483 1482 1482 1481 1482 1478 1478 1479 1480 1482 1482 1483 1484 1486 1490 1492 1492 1492 1488 1485 1487 1486 1494 1480 1479 1484 1487 1503 1495 1497 1501 1507 1511 1515 1519 1522
1511 1506 1502 1498 1494 1492 1490 1486 1484 1483 1482 1481 1482 1482 1477 1478 1478 1479 1481 1482 1482 1484 1484 1488 1491 1490 1489 1494 1501 1498 1504 1497 1490 1480 1483 1488 1502 1496 1499 1502 1505 1510 1514 1517 1520
1510 1505 1500 1496 1492 1490 1489 1486 1484 1483 1482 1482 1482 1484 1477 1477 1476 1478 1479 1481 1482 1483 1484 1486 1487 1490 1494 1500 1520 1507 1503 1497 1495 1487 1484 1491 1494 1494 1500 1502 1504 1507 1510 1514 1518
1508 1503 1498 1494 1491 1490 1489 1486 1488 1486 1481 1480 1480 1478 1476 1476 1475 1476 1478 1480 1482 1483 1486 1484 1492 1501 1495 1494 1494 1494 1500 1503 1493 1486 1488 1493 1494 1492 1498 1503 1505 1506 1508 1512 1514
1506 1501 1496 1492 1490 1490 1489 1488 1490 1491 1482 1476 1476 1476 1475 1477 1477 1476 1478 1480 1482 1487 1485 1491 1498 1489 1488 1489 1494 1495 1499 1503 1485 1478 1486 1487 1492 1491 1493 1496 1500 1501 1504 1507 1513
1504 1499 1494 1491 1489 1489 1489 1488 1488 1486 1485 1474 1473 1473 1474 1474 1474 1474 1477 1478 1481 1487 1489 1497 1489 1484 1487 1488 1493 1496 1501 1498 1499 1488 1483 1488 1504 1501 1499 1500 1502 1501 1500 1504 1506
1502 1497 1493 1490 1491 1489 1489 1488 1486 1485 1495 1478 1472 1471 1472 1472 1473 1472 1475 1479 1481 1487 1491 1492 1483 1486 1488 1491 1492 1505 1491 1490 1492 1501 1514 1488 1530 1503 1500 1499 1500 1497 1500 1500 1503
1500 1495 1491 1488 1488 1489 1489 1487 1485 1486 1509 1473 1471 1470 1470 1472 1472 1471 1473 1476 1480 1482 1488 1494 1485 1488 1492 1489 1488 1495 1485 1488 1488 1500 1500 1492 1514 1501 1500 1504 1494 1490 1493 1494 1497
1497 1492 1489 1486 1485 1487 1487 1486 1486 1498 1499 1474 1469 1469 1471 1471 1470 1470 1472 1475 1476 1480 1483 1485 1479 1481 1482 1478 1482 1482 1486 1491 1500 1507 1525 1501 1504 1509 1500 1485 1481 1485 1484 1486 1492
1493 1490 1486 1485 1486 1486 1486 1486 1498 1502 1478 1482 1475 1471 1473 1474 1471 1471 1474 1478 1486 1494 1496 1485 1482 1477 1475 1480 1480 1485 1502 1525 1523 1528 1527 1498 1503 1488 1473 1468 1470 1470 1474 1480 1486
1490 1486 1484 1485 1485 1486 1485 1488 1497 1484 1483 1476 1475 1476 1480 1477 1474 1473 1476 1484 1481 1485 1501 1503 1503 1478 1474 1477 1483 1488 1496 1524 1526 1534 1516 1500 1508 1477 1458 1460 1462 1465 1469 1477 1481
1486 1484 1483 1483 1486 1487 1486 1500 1495 1486 1481 1480 1479 1489 1490 1483 1480 1478 1489 1493 1486 1483 1497 1503 1497 1476 1473 1472 1474 1482 1496 1484 1512 1516 1516 1508 1486 1463 1455 1459 1458 1460 1464 1468 1474
1485 1482 1483 1483 1485 1486 1489 1497 1490 1481 1479 1481 1491 1489 1498 1492 1488 1488 1494 1490 1490 1484 1482 1488 1498 1480 1474 1470 1473 1474 1477 1497 1506 1523 1522 1511 1494 1489 1461 1458 1457 1458 1455 1459 1467
1485 1482 1484 1485 1486 1487 1496 1495 1486 1481 1480 1484 1490 1495 1496 1497 1494 1497 1500 1492 1489 1485 1484 1490 1496 1490 1479 1486 1488 1486 1490 1491 1496 1506 1522 1522 1505 1467 1462 1455 1450 1446 1449 1453 1462
1485 1485 1485 1485 1489 1492 1494 1489 1485 1485 1483 1487 1489 1493 1496 1498 1497 1496 1497 1495 1490 1486 1492 1492 1503 1504 1488 1480 1481 1481 1486 1492 1506 1503 1509 1511 1501 1458 1456 1452 1448 1444 1447 1452 1459
1485 1481 1484 1486 1494 1495 1489 1488 1488 1488 1490 1490 1496 1496 1496 1501 1504 1503 1500 1496 1492 1491 1493 1491 1507 1516 1502 1492 1485 1489 1490 1487 1495 1498 1502 1509 1500 1457 1455 1456 1453 1449 1450 1454 1458
1491 1488 1483 1485 1487 1490 1490 1491 1493 1491 1493 1495 1499 1497 1500 1508 1506 1508 1505 1499 1497 1496 1493 1491 1507 1509 1520 1507 1500 1498 1491 1486 1491 1503 1502 1495 1479 1464 1463 1467 1461 1459 1456 1456 1460
1494 1492 1491 1492 1489 1490 1489 1490 1493 1495 1496 1497 1502 1505 1504 1514 1513 1514 1509 1505 1499 1499 1496 1497 1509 1505 1503 1501 1496 1492 1490 1486 1484 1485 1492 1479 1480 1467 1465 1468 1470 1468 1462 1463 1467
1495 1493 1491 1490 1489 1489 1492 1493 1494 1497 1498 1503 1508 1508 1506 1513 1514 1514 1512 1511 1510 1503 1504 1504 1511 1508 1505 1498 1492 1488 1484 1479 1486 1488 1482 1474 1472 1465 1466 1466 1468 1469 1468 1466 1467
1493 1493 1492 1491 1490 1491 1493 1494 1495 1496 1502 1502 1505 1508 1510 1510 1509 1508 1508 1508 1508 1509 1512 1514 1517 1517 1514 1504 1500 1496 1489 1486 1489 1491 1490 1483 1481 1471 1473 1475 1476 1473 1469 1468 1470